{"data":{"norad_id":57406,"epoch":"2026-05-24T13:56:52.857312Z","epoch_age_seconds":101385,"freshness":"FRESH","line1":"1 57406U 23102C   26144.58116733  .00001513  00000+0  66075-4 0  9998","line2":"2 57406  43.0029 187.0690 0001677 279.9873  80.0789 15.26746871157764","mean_motion":15.26746871,"eccentricity":0.0001677,"inclination_deg":43.0029,"raan_deg":187.069,"arg_perigee_deg":279.9873,"mean_anomaly_deg":80.0789,"bstar":6.6075e-5,"rev_number":15776,"period_min":94.31818904314,"perigee_km":484.39387889227,"apogee_km":486.69595780769,"semimajor_km":6863.68191835,"source":"CELESTRAK","updated_at":"2026-05-25T13:38:18.297692Z"}}